Year,Month,Day,Hour,Minute,Value (Times are PST for temperature in C)
2007,08,15,00,00,15.90
2007,08,15,00,01,15.90
2007,08,15,00,02,15.80
2007,08,15,00,03,15.80
2007,08,15,00,04,15.80
2007,08,15,00,05,15.80
2007,08,15,00,06,15.80
2007,08,15,00,07,15.80
2007,08,15,00,08,15.80
2007,08,15,00,09,15.80
2007,08,15,00,10,15.80
2007,08,15,00,11,15.80
2007,08,15,00,12,15.70
2007,08,15,00,13,15.70
2007,08,15,00,14,15.70
2007,08,15,00,15,15.70
2007,08,15,00,16,15.70
2007,08,15,00,17,15.70
2007,08,15,00,18,15.70
2007,08,15,00,19,15.70
2007,08,15,00,20,15.60
2007,08,15,00,21,15.60
2007,08,15,00,22,15.60
2007,08,15,00,23,15.60
2007,08,15,00,24,15.60
2007,08,15,00,25,15.50
2007,08,15,00,26,15.50
2007,08,15,00,27,15.50
2007,08,15,00,28,15.40
2007,08,15,00,29,15.40
2007,08,15,00,30,15.40
2007,08,15,00,31,15.40
2007,08,15,00,32,15.40
2007,08,15,00,33,15.40
2007,08,15,00,34,15.30
2007,08,15,00,35,15.30
2007,08,15,00,36,15.30
2007,08,15,00,37,15.30
2007,08,15,00,38,15.30
2007,08,15,00,39,15.30
2007,08,15,00,40,15.30
2007,08,15,00,41,15.30
2007,08,15,00,42,15.30
2007,08,15,00,43,15.30
2007,08,15,00,44,15.30
2007,08,15,00,45,15.30
2007,08,15,00,46,15.30
2007,08,15,00,47,15.30
2007,08,15,00,48,15.20
2007,08,15,00,49,15.20
2007,08,15,00,50,15.20
2007,08,15,00,51,15.20
2007,08,15,00,52,15.20
2007,08,15,00,53,15.20
2007,08,15,00,54,15.20
2007,08,15,00,55,15.20
2007,08,15,00,56,15.10
2007,08,15,00,57,15.10
2007,08,15,00,58,15.10
2007,08,15,00,59,15.00
2007,08,15,01,00,15.00
2007,08,15,01,01,15.00
2007,08,15,01,02,15.00
2007,08,15,01,03,15.00
2007,08,15,01,04,15.00
2007,08,15,01,05,15.00
2007,08,15,01,06,15.00
2007,08,15,01,07,15.00
2007,08,15,01,08,15.00
2007,08,15,01,09,15.00
2007,08,15,01,10,15.00
2007,08,15,01,11,15.00
2007,08,15,01,12,14.90
2007,08,15,01,13,14.90
2007,08,15,01,14,14.90
2007,08,15,01,15,14.80
2007,08,15,01,16,14.80
2007,08,15,01,17,14.80
2007,08,15,01,18,14.80
2007,08,15,01,19,14.80
2007,08,15,01,20,14.80
2007,08,15,01,21,14.80
2007,08,15,01,22,14.80
2007,08,15,01,23,14.90
2007,08,15,01,24,14.90
2007,08,15,01,25,14.90
2007,08,15,01,26,14.90
2007,08,15,01,27,14.90
2007,08,15,01,28,14.90
2007,08,15,01,29,14.90
2007,08,15,01,30,14.80
2007,08,15,01,31,14.80
2007,08,15,01,32,14.80
2007,08,15,01,33,14.80
2007,08,15,01,34,14.80
2007,08,15,01,35,14.80
2007,08,15,01,36,14.80
2007,08,15,01,37,14.80
2007,08,15,01,38,14.80
2007,08,15,01,39,14.70
2007,08,15,01,40,14.70
2007,08,15,01,41,14.70
2007,08,15,01,42,14.70
2007,08,15,01,43,14.70
2007,08,15,01,44,14.70
2007,08,15,01,45,14.60
2007,08,15,01,46,14.60
2007,08,15,01,47,14.60
2007,08,15,01,48,14.60
2007,08,15,01,49,14.60
2007,08,15,01,50,14.60
2007,08,15,01,51,14.60
2007,08,15,01,52,14.60
2007,08,15,01,53,14.60
2007,08,15,01,54,14.60
2007,08,15,01,55,14.60
2007,08,15,01,56,14.50
2007,08,15,01,57,14.50
2007,08,15,01,58,14.50
2007,08,15,01,59,14.50
2007,08,15,02,00,14.50
2007,08,15,02,01,14.50
2007,08,15,02,02,14.50
2007,08,15,02,03,14.50
2007,08,15,02,04,14.50
2007,08,15,02,05,14.50
2007,08,15,02,06,14.50
2007,08,15,02,07,14.50
2007,08,15,02,08,14.50
2007,08,15,02,09,14.60
2007,08,15,02,10,14.60
2007,08,15,02,11,14.60
2007,08,15,02,12,14.60
2007,08,15,02,13,14.60
2007,08,15,02,14,14.60
2007,08,15,02,15,14.60
2007,08,15,02,16,14.60
2007,08,15,02,17,14.60
2007,08,15,02,18,14.60
2007,08,15,02,19,14.60
2007,08,15,02,20,14.60
2007,08,15,02,21,14.60
2007,08,15,02,22,14.60
2007,08,15,02,23,14.60
2007,08,15,02,24,14.60
2007,08,15,02,25,14.60
2007,08,15,02,26,14.60
2007,08,15,02,27,14.60
2007,08,15,02,28,14.60
2007,08,15,02,29,14.50
2007,08,15,02,30,14.50
2007,08,15,02,31,14.50
2007,08,15,02,32,14.50
2007,08,15,02,33,14.40
2007,08,15,02,34,14.40
2007,08,15,02,35,14.40
2007,08,15,02,36,14.40
2007,08,15,02,37,14.30
2007,08,15,02,38,14.30
2007,08,15,02,39,14.30
2007,08,15,02,40,14.30
2007,08,15,02,41,14.30
2007,08,15,02,42,14.30
2007,08,15,02,43,14.30
2007,08,15,02,44,14.30
2007,08,15,02,45,14.30
2007,08,15,02,46,14.30
2007,08,15,02,47,14.30
2007,08,15,02,48,14.30
2007,08,15,02,49,14.20
2007,08,15,02,50,14.20
2007,08,15,02,51,14.20
2007,08,15,02,52,14.20
2007,08,15,02,53,14.20
2007,08,15,02,54,14.20
2007,08,15,02,55,14.20
2007,08,15,02,56,14.20
2007,08,15,02,57,14.20
2007,08,15,02,58,14.10
2007,08,15,02,59,14.10
2007,08,15,03,00,14.10
2007,08,15,03,01,14.10
2007,08,15,03,02,14.10
2007,08,15,03,03,14.10
2007,08,15,03,04,14.00
2007,08,15,03,05,14.00
2007,08,15,03,06,14.00
2007,08,15,03,07,13.90
2007,08,15,03,08,13.90
2007,08,15,03,09,13.90
2007,08,15,03,10,13.90
2007,08,15,03,11,13.90
2007,08,15,03,12,13.90
2007,08,15,03,13,13.90
2007,08,15,03,14,13.80
2007,08,15,03,15,13.80
2007,08,15,03,16,13.80
2007,08,15,03,17,13.80
2007,08,15,03,18,13.80
2007,08,15,03,19,13.80
2007,08,15,03,20,13.80
2007,08,15,03,21,13.80
2007,08,15,03,22,13.80
2007,08,15,03,23,13.80
2007,08,15,03,24,13.80
2007,08,15,03,25,13.80
2007,08,15,03,26,13.70
2007,08,15,03,27,13.70
2007,08,15,03,28,13.70
2007,08,15,03,29,13.70
2007,08,15,03,30,13.70
2007,08,15,03,31,13.60
2007,08,15,03,32,13.60
2007,08,15,03,33,13.60
2007,08,15,03,34,13.60
2007,08,15,03,35,13.60
2007,08,15,03,36,13.60
2007,08,15,03,37,13.60
2007,08,15,03,38,13.60
2007,08,15,03,39,13.60
2007,08,15,03,40,13.50
2007,08,15,03,41,13.60
2007,08,15,03,42,13.50
2007,08,15,03,43,13.60
2007,08,15,03,44,13.60
2007,08,15,03,45,13.60
2007,08,15,03,46,13.60
2007,08,15,03,47,13.60
2007,08,15,03,48,13.60
2007,08,15,03,49,13.50
2007,08,15,03,50,13.50
2007,08,15,03,51,13.50
2007,08,15,03,52,13.50
2007,08,15,03,53,13.50
2007,08,15,03,54,13.50
2007,08,15,03,55,13.50
2007,08,15,03,56,13.50
2007,08,15,03,57,13.50
2007,08,15,03,58,13.50
2007,08,15,03,59,13.50
2007,08,15,04,00,13.50
2007,08,15,04,01,13.50
2007,08,15,04,02,13.50
2007,08,15,04,03,13.50
2007,08,15,04,04,13.50
2007,08,15,04,05,13.50
2007,08,15,04,06,13.50
2007,08,15,04,07,13.50
2007,08,15,04,08,13.50
2007,08,15,04,09,13.40
2007,08,15,04,10,13.40
2007,08,15,04,11,13.40
2007,08,15,04,12,13.40
2007,08,15,04,13,13.40
2007,08,15,04,14,13.40
2007,08,15,04,15,13.40
2007,08,15,04,16,13.40
2007,08,15,04,17,13.40
2007,08,15,04,18,13.40
2007,08,15,04,19,13.40
2007,08,15,04,20,13.40
2007,08,15,04,21,13.40
2007,08,15,04,22,13.40
2007,08,15,04,23,13.30
2007,08,15,04,24,13.30
2007,08,15,04,25,13.30
2007,08,15,04,26,13.30
2007,08,15,04,27,13.30
2007,08,15,04,28,13.30
2007,08,15,04,29,13.20
2007,08,15,04,30,13.20
2007,08,15,04,31,13.20
2007,08,15,04,32,13.20
2007,08,15,04,33,13.20
2007,08,15,04,34,13.10
2007,08,15,04,35,13.10
2007,08,15,04,36,13.10
2007,08,15,04,37,13.00
2007,08,15,04,38,13.00
2007,08,15,04,39,13.00
2007,08,15,04,40,12.90
2007,08,15,04,41,12.90
2007,08,15,04,42,12.90
2007,08,15,04,43,12.90
2007,08,15,04,44,12.80
2007,08,15,04,45,12.80
2007,08,15,04,46,12.80
2007,08,15,04,47,12.80
2007,08,15,04,48,12.80
2007,08,15,04,49,12.80
2007,08,15,04,50,12.80
2007,08,15,04,51,12.80
2007,08,15,04,52,12.80
2007,08,15,04,53,12.80
2007,08,15,04,54,12.80
2007,08,15,04,55,12.80
2007,08,15,04,56,12.80
2007,08,15,04,57,12.80
2007,08,15,04,58,12.70
2007,08,15,04,59,12.70
2007,08,15,05,00,12.70
2007,08,15,05,01,12.70
2007,08,15,05,02,12.70
2007,08,15,05,03,12.70
2007,08,15,05,04,12.70
2007,08,15,05,05,12.70
2007,08,15,05,06,12.70
2007,08,15,05,07,12.70
2007,08,15,05,08,12.70
2007,08,15,05,09,12.70
2007,08,15,05,10,12.70
2007,08,15,05,11,12.70
2007,08,15,05,12,12.70
2007,08,15,05,13,12.70
2007,08,15,05,14,12.70
2007,08,15,05,15,12.70
2007,08,15,05,16,12.80
2007,08,15,05,17,12.80
2007,08,15,05,18,12.80
2007,08,15,05,19,12.80
2007,08,15,05,20,12.80
2007,08,15,05,21,12.80
2007,08,15,05,22,12.80
2007,08,15,05,23,12.80
2007,08,15,05,24,12.80
2007,08,15,05,25,12.80
2007,08,15,05,26,12.80
2007,08,15,05,27,12.80
2007,08,15,05,28,12.80
2007,08,15,05,29,12.80
2007,08,15,05,30,12.80
2007,08,15,05,31,12.80
2007,08,15,05,32,12.80
2007,08,15,05,33,12.80
2007,08,15,05,34,12.80
2007,08,15,05,35,12.80
2007,08,15,05,36,12.80
2007,08,15,05,37,12.80
2007,08,15,05,38,12.80
2007,08,15,05,39,12.70
2007,08,15,05,40,12.70
2007,08,15,05,41,12.70
2007,08,15,05,42,12.70
2007,08,15,05,43,12.70
2007,08,15,05,44,12.70
2007,08,15,05,45,12.70
2007,08,15,05,46,12.70
2007,08,15,05,47,12.60
2007,08,15,05,48,12.60
2007,08,15,05,49,12.60
2007,08,15,05,50,12.60
2007,08,15,05,51,12.50
2007,08,15,05,52,12.50
2007,08,15,05,53,12.50
2007,08,15,05,54,12.50
2007,08,15,05,55,12.40
2007,08,15,05,56,12.40
2007,08,15,05,57,12.40
2007,08,15,05,58,12.40
2007,08,15,05,59,12.40
2007,08,15,06,00,12.40
2007,08,15,06,01,12.30
2007,08,15,06,02,12.30
2007,08,15,06,03,12.30
2007,08,15,06,04,12.30
2007,08,15,06,05,12.20
2007,08,15,06,06,12.20
2007,08,15,06,07,12.20
2007,08,15,06,08,12.20
2007,08,15,06,09,12.20
2007,08,15,06,10,12.10
2007,08,15,06,11,12.10
2007,08,15,06,12,12.10
2007,08,15,06,13,12.10
2007,08,15,06,14,12.10
2007,08,15,06,15,12.00
2007,08,15,06,16,12.00
2007,08,15,06,17,12.00
2007,08,15,06,18,12.00
2007,08,15,06,19,11.90
2007,08,15,06,20,11.90
2007,08,15,06,21,11.90
2007,08,15,06,22,11.90
2007,08,15,06,23,11.90
2007,08,15,06,24,11.90
2007,08,15,06,25,11.90
2007,08,15,06,26,12.00
2007,08,15,06,27,12.00
2007,08,15,06,28,12.00
2007,08,15,06,29,12.10
2007,08,15,06,30,12.10
2007,08,15,06,31,12.20
2007,08,15,06,32,12.20
2007,08,15,06,33,12.30
2007,08,15,06,34,12.30
2007,08,15,06,35,12.30
2007,08,15,06,36,12.30
2007,08,15,06,37,12.40
2007,08,15,06,38,12.40
2007,08,15,06,39,12.40
2007,08,15,06,40,12.40
2007,08,15,06,41,12.50
2007,08,15,06,42,12.50
2007,08,15,06,43,12.50
2007,08,15,06,44,12.60
2007,08,15,06,45,12.60
2007,08,15,06,46,12.60
2007,08,15,06,47,12.60
2007,08,15,06,48,12.70
2007,08,15,06,49,12.70
2007,08,15,06,50,12.70
2007,08,15,06,51,12.80
2007,08,15,06,52,12.80
2007,08,15,06,53,12.80
2007,08,15,06,54,12.90
2007,08,15,06,55,12.90
2007,08,15,06,56,12.90
2007,08,15,06,57,13.00
2007,08,15,06,58,13.00
2007,08,15,06,59,13.10
2007,08,15,07,00,13.10
2007,08,15,07,01,13.10
2007,08,15,07,02,13.20
2007,08,15,07,03,13.20
2007,08,15,07,04,13.20
2007,08,15,07,05,13.30
2007,08,15,07,06,13.30
2007,08,15,07,07,13.30
2007,08,15,07,08,13.30
2007,08,15,07,09,13.30
2007,08,15,07,10,13.30
2007,08,15,07,11,13.40
2007,08,15,07,12,13.40
2007,08,15,07,13,13.50
2007,08,15,07,14,13.50
2007,08,15,07,15,13.60
2007,08,15,07,16,13.60
2007,08,15,07,17,13.60
2007,08,15,07,18,13.60
2007,08,15,07,19,13.70
2007,08,15,07,20,13.70
2007,08,15,07,21,13.80
2007,08,15,07,22,13.80
2007,08,15,07,23,13.90
2007,08,15,07,24,13.90
2007,08,15,07,25,14.00
2007,08,15,07,26,14.10
2007,08,15,07,27,14.10
2007,08,15,07,28,14.20
2007,08,15,07,29,14.20
2007,08,15,07,30,14.30
2007,08,15,07,31,14.30
2007,08,15,07,32,14.40
2007,08,15,07,33,14.40
2007,08,15,07,34,14.50
2007,08,15,07,35,14.60
2007,08,15,07,36,14.70
2007,08,15,07,37,14.70
2007,08,15,07,38,14.80
2007,08,15,07,39,14.80
2007,08,15,07,40,14.90
2007,08,15,07,41,14.90
2007,08,15,07,42,14.90
2007,08,15,07,43,15.00
2007,08,15,07,44,15.00
2007,08,15,07,45,15.00
2007,08,15,07,46,15.00
2007,08,15,07,47,15.00
2007,08,15,07,48,15.00
2007,08,15,07,49,15.00
2007,08,15,07,50,15.00
2007,08,15,07,51,15.00
2007,08,15,07,52,15.00
2007,08,15,07,53,15.00
2007,08,15,07,54,15.00
2007,08,15,07,55,15.10
2007,08,15,07,56,15.10
2007,08,15,07,57,15.10
2007,08,15,07,58,15.10
2007,08,15,07,59,15.10
2007,08,15,08,00,15.10
2007,08,15,08,01,15.10
2007,08,15,08,02,15.20
2007,08,15,08,03,15.20
2007,08,15,08,04,15.20
2007,08,15,08,05,15.30
2007,08,15,08,06,15.40
2007,08,15,08,07,15.50
2007,08,15,08,08,15.60
2007,08,15,08,09,15.70
2007,08,15,08,10,15.70
2007,08,15,08,11,15.90
2007,08,15,08,12,15.90
2007,08,15,08,13,16.00
2007,08,15,08,14,16.10
2007,08,15,08,15,16.20
2007,08,15,08,16,16.30
2007,08,15,08,17,16.30
2007,08,15,08,18,16.30
2007,08,15,08,19,16.40
2007,08,15,08,20,16.40
2007,08,15,08,21,16.40
2007,08,15,08,22,16.50
2007,08,15,08,23,16.60
2007,08,15,08,24,16.60
2007,08,15,08,25,16.70
2007,08,15,08,26,16.70
2007,08,15,08,27,16.80
2007,08,15,08,28,16.80
2007,08,15,08,29,16.90
2007,08,15,08,30,16.90
2007,08,15,08,31,17.00
2007,08,15,08,32,17.10
2007,08,15,08,33,17.10
2007,08,15,08,34,17.20
2007,08,15,08,35,17.20
2007,08,15,08,36,17.30
2007,08,15,08,37,17.30
2007,08,15,08,38,17.40
2007,08,15,08,39,17.50
2007,08,15,08,40,17.50
2007,08,15,08,41,17.60
2007,08,15,08,42,17.60
2007,08,15,08,43,17.70
2007,08,15,08,44,17.70
2007,08,15,08,45,17.70
2007,08,15,08,46,17.90
2007,08,15,08,47,18.00
2007,08,15,08,48,18.10
2007,08,15,08,49,18.20
2007,08,15,08,50,18.30
2007,08,15,08,51,18.30
2007,08,15,08,52,18.40
2007,08,15,08,53,18.50
2007,08,15,08,54,18.60
2007,08,15,08,55,18.60
2007,08,15,08,56,18.70
2007,08,15,08,57,18.80
2007,08,15,08,58,18.90
2007,08,15,08,59,19.10
2007,08,15,09,00,19.20
2007,08,15,09,01,19.30
2007,08,15,09,02,19.40
2007,08,15,09,03,19.60
2007,08,15,09,04,19.80
2007,08,15,09,05,20.00
2007,08,15,09,06,20.20
2007,08,15,09,07,20.40
2007,08,15,09,08,20.60
2007,08,15,09,09,20.70
2007,08,15,09,10,20.90
2007,08,15,09,11,21.10
2007,08,15,09,12,21.20
2007,08,15,09,13,21.40
2007,08,15,09,14,21.50
2007,08,15,09,15,21.70
2007,08,15,09,16,21.80
2007,08,15,09,17,21.90
2007,08,15,09,18,22.00
2007,08,15,09,19,22.10
2007,08,15,09,20,22.20
2007,08,15,09,21,22.30
2007,08,15,09,22,22.50
2007,08,15,09,23,22.50
2007,08,15,09,24,22.60
2007,08,15,09,25,22.70
2007,08,15,09,26,22.80
2007,08,15,09,27,22.80
2007,08,15,09,28,22.90
2007,08,15,09,29,22.90
2007,08,15,09,30,23.00
2007,08,15,09,31,23.10
2007,08,15,09,32,23.10
2007,08,15,09,33,23.20
2007,08,15,09,34,23.30
2007,08,15,09,35,23.40
2007,08,15,09,36,23.40
2007,08,15,09,37,23.50
2007,08,15,09,38,23.60
2007,08,15,09,39,23.60
2007,08,15,09,40,23.70
2007,08,15,09,41,23.70
2007,08,15,09,42,23.70
2007,08,15,09,43,23.70
2007,08,15,09,44,23.70
2007,08,15,09,45,23.80
2007,08,15,09,46,23.80
2007,08,15,09,47,23.80
2007,08,15,09,48,23.80
2007,08,15,09,49,23.80
2007,08,15,09,50,23.80
2007,08,15,09,51,23.80
2007,08,15,09,52,23.90
2007,08,15,09,53,23.90
2007,08,15,09,54,24.00
2007,08,15,09,55,24.10
2007,08,15,09,56,24.10
2007,08,15,09,57,24.20
2007,08,15,09,58,24.30
2007,08,15,09,59,24.30
2007,08,15,10,00,24.40
2007,08,15,10,01,24.40
2007,08,15,10,02,24.40
2007,08,15,10,03,24.50
2007,08,15,10,04,24.60
2007,08,15,10,05,24.70
2007,08,15,10,06,24.70
2007,08,15,10,07,24.70
2007,08,15,10,08,24.50
2007,08,15,10,09,24.30
2007,08,15,10,10,24.20
2007,08,15,10,11,24.10
2007,08,15,10,12,23.90
2007,08,15,10,13,23.80
2007,08,15,10,14,23.80
2007,08,15,10,15,23.70
2007,08,15,10,16,23.60
2007,08,15,10,17,23.60
2007,08,15,10,18,23.60
2007,08,15,10,19,23.50
2007,08,15,10,20,23.50
2007,08,15,10,21,23.40
2007,08,15,10,22,23.30
2007,08,15,10,23,23.20
2007,08,15,10,24,23.20
2007,08,15,10,25,23.20
2007,08,15,10,26,23.20
2007,08,15,10,27,23.30
2007,08,15,10,28,23.40
2007,08,15,10,29,23.50
2007,08,15,10,30,23.50
2007,08,15,10,31,23.60
2007,08,15,10,32,23.70
2007,08,15,10,33,23.80
2007,08,15,10,34,23.90
2007,08,15,10,35,23.90
2007,08,15,10,36,23.90
2007,08,15,10,37,24.00
2007,08,15,10,38,24.00
2007,08,15,10,39,24.10
2007,08,15,10,40,24.20
2007,08,15,10,41,24.20
2007,08,15,10,42,24.20
2007,08,15,10,43,24.20
2007,08,15,10,44,24.20
2007,08,15,10,45,24.40
2007,08,15,10,46,24.40
2007,08,15,10,47,24.40
2007,08,15,10,48,24.50
2007,08,15,10,49,24.50
2007,08,15,10,50,24.50
2007,08,15,10,51,24.50
2007,08,15,10,52,24.50
2007,08,15,10,53,24.50
2007,08,15,10,54,24.60
2007,08,15,10,55,24.60
2007,08,15,10,56,24.60
2007,08,15,10,57,24.60
2007,08,15,10,58,24.60
2007,08,15,10,59,24.60
2007,08,15,11,00,24.60
2007,08,15,11,01,24.60
2007,08,15,11,02,24.60
2007,08,15,11,03,24.50
2007,08,15,11,04,24.60
2007,08,15,11,05,24.60
2007,08,15,11,06,24.60
2007,08,15,11,07,24.60
2007,08,15,11,08,24.70
2007,08,15,11,09,24.80
2007,08,15,11,10,24.90
2007,08,15,11,11,25.00
2007,08,15,11,12,25.00
2007,08,15,11,13,25.10
2007,08,15,11,14,25.10
2007,08,15,11,15,25.10
2007,08,15,11,16,25.10
2007,08,15,11,17,25.10
2007,08,15,11,18,25.20
2007,08,15,11,19,25.10
2007,08,15,11,20,25.10
2007,08,15,11,21,25.10
2007,08,15,11,22,25.20
2007,08,15,11,23,25.20
2007,08,15,11,24,25.30
2007,08,15,11,25,25.30
2007,08,15,11,26,25.40
2007,08,15,11,27,25.40
2007,08,15,11,28,25.40
2007,08,15,11,29,25.40
2007,08,15,11,30,25.40
2007,08,15,11,31,25.50
2007,08,15,11,32,25.40
2007,08,15,11,33,25.40
2007,08,15,11,34,25.40
2007,08,15,11,35,25.30
2007,08,15,11,36,25.20
2007,08,15,11,37,25.20
2007,08,15,11,38,25.10
2007,08,15,11,39,25.10
2007,08,15,11,40,25.10
2007,08,15,11,41,25.10
2007,08,15,11,42,25.00
2007,08,15,11,43,25.00
2007,08,15,11,44,24.90
2007,08,15,11,45,24.90
2007,08,15,11,46,24.90
2007,08,15,11,47,24.90
2007,08,15,11,48,24.90
2007,08,15,11,49,25.00
2007,08,15,11,50,25.00
2007,08,15,11,51,25.10
2007,08,15,11,52,25.20
2007,08,15,11,53,25.20
2007,08,15,11,54,25.30
2007,08,15,11,55,25.40
2007,08,15,11,56,25.60
2007,08,15,11,57,25.70
2007,08,15,11,58,25.70
2007,08,15,11,59,25.80
2007,08,15,12,00,25.80
2007,08,15,12,01,25.80
2007,08,15,12,02,25.60
2007,08,15,12,03,25.60
2007,08,15,12,04,25.40
2007,08,15,12,05,25.20
2007,08,15,12,06,25.20
2007,08,15,12,07,25.20
2007,08,15,12,08,25.30
2007,08,15,12,09,25.30
2007,08,15,12,10,25.30
2007,08,15,12,11,25.30
2007,08,15,12,12,25.30
2007,08,15,12,13,25.30
2007,08,15,12,14,25.40
2007,08,15,12,15,25.40
2007,08,15,12,16,25.60
2007,08,15,12,17,25.70
2007,08,15,12,18,25.70
2007,08,15,12,19,25.80
2007,08,15,12,20,25.90
2007,08,15,12,21,25.80
2007,08,15,12,22,25.80
2007,08,15,12,23,25.70
2007,08,15,12,24,25.50
2007,08,15,12,25,25.50
2007,08,15,12,26,25.50
2007,08,15,12,27,25.50
2007,08,15,12,28,25.60
2007,08,15,12,29,25.50
2007,08,15,12,30,25.50
2007,08,15,12,31,25.60
2007,08,15,12,32,25.60
2007,08,15,12,33,25.60
2007,08,15,12,34,25.70
2007,08,15,12,35,25.80
2007,08,15,12,36,25.80
2007,08,15,12,37,25.80
2007,08,15,12,38,25.80
2007,08,15,12,39,25.90
2007,08,15,12,40,25.90
2007,08,15,12,41,25.90
2007,08,15,12,42,25.80
2007,08,15,12,43,25.70
2007,08,15,12,44,25.70
2007,08,15,12,45,25.70
2007,08,15,12,46,25.50
2007,08,15,12,47,25.20
2007,08,15,12,48,25.10
2007,08,15,12,49,25.00
2007,08,15,12,50,24.90
2007,08,15,12,51,24.80
2007,08,15,12,52,24.70
2007,08,15,12,53,24.70
2007,08,15,12,54,24.70
2007,08,15,12,55,24.70
2007,08,15,12,56,24.70
2007,08,15,12,57,24.60
2007,08,15,12,58,24.60
2007,08,15,12,59,24.50
2007,08,15,13,00,24.50
2007,08,15,13,01,24.40
2007,08,15,13,02,24.50
2007,08,15,13,03,24.50
2007,08,15,13,04,24.50
2007,08,15,13,05,24.60
2007,08,15,13,06,24.60
2007,08,15,13,07,24.60
2007,08,15,13,08,24.50
2007,08,15,13,09,24.40
2007,08,15,13,10,24.30
2007,08,15,13,11,24.10
2007,08,15,13,12,24.00
2007,08,15,13,13,23.90
2007,08,15,13,14,23.80
2007,08,15,13,15,23.80
2007,08,15,13,16,23.80
2007,08,15,13,17,23.80
2007,08,15,13,18,23.90
2007,08,15,13,19,24.00
2007,08,15,13,20,24.10
2007,08,15,13,21,24.20
2007,08,15,13,22,24.30
2007,08,15,13,23,24.40
2007,08,15,13,24,24.50
2007,08,15,13,25,24.60
2007,08,15,13,26,24.40
2007,08,15,13,27,24.40
2007,08,15,13,28,24.40
2007,08,15,13,29,24.30
2007,08,15,13,30,24.20
2007,08,15,13,31,24.20
2007,08,15,13,32,24.20
2007,08,15,13,33,24.20
2007,08,15,13,34,24.30
2007,08,15,13,35,24.30
2007,08,15,13,36,24.30
2007,08,15,13,37,24.30
2007,08,15,13,38,24.20
2007,08,15,13,39,24.30
2007,08,15,13,40,24.30
2007,08,15,13,41,24.30
2007,08,15,13,42,24.30
2007,08,15,13,43,24.40
2007,08,15,13,44,24.40
2007,08,15,13,45,24.60
2007,08,15,13,46,24.60
2007,08,15,13,47,24.70
2007,08,15,13,48,24.70
2007,08,15,13,49,24.80
2007,08,15,13,50,24.80
2007,08,15,13,51,24.80
2007,08,15,13,52,24.80
2007,08,15,13,53,24.90
2007,08,15,13,54,25.00
2007,08,15,13,55,25.00
2007,08,15,13,56,25.10
2007,08,15,13,57,25.20
2007,08,15,13,58,25.20
2007,08,15,13,59,25.30
2007,08,15,14,00,25.20
2007,08,15,14,01,25.20
2007,08,15,14,02,25.20
2007,08,15,14,03,25.20
2007,08,15,14,04,25.20
2007,08,15,14,05,24.80
2007,08,15,14,06,24.80
2007,08,15,14,07,24.80
2007,08,15,14,08,24.70
2007,08,15,14,09,24.70
2007,08,15,14,10,24.80
2007,08,15,14,11,24.80
2007,08,15,14,12,24.80
2007,08,15,14,13,24.90
2007,08,15,14,14,25.00
2007,08,15,14,15,25.00
2007,08,15,14,16,25.00
2007,08,15,14,17,25.10
2007,08,15,14,18,25.10
2007,08,15,14,19,25.30
2007,08,15,14,20,25.40
2007,08,15,14,21,25.40
2007,08,15,14,22,25.40
2007,08,15,14,23,25.30
2007,08,15,14,24,25.30
2007,08,15,14,25,25.30
2007,08,15,14,26,25.30
2007,08,15,14,27,25.30
2007,08,15,14,28,25.30
2007,08,15,14,29,25.30
2007,08,15,14,30,25.30
2007,08,15,14,31,25.30
2007,08,15,14,32,25.30
2007,08,15,14,33,25.30
2007,08,15,14,34,25.30
2007,08,15,14,35,25.30
2007,08,15,14,36,25.30
2007,08,15,14,37,25.30
2007,08,15,14,38,25.20
2007,08,15,14,39,25.20
2007,08,15,14,40,25.20
2007,08,15,14,41,25.10
2007,08,15,14,42,25.10
2007,08,15,14,43,25.10
2007,08,15,14,44,25.10
2007,08,15,14,45,25.20
2007,08,15,14,46,25.20
2007,08,15,14,47,25.20
2007,08,15,14,48,25.30
2007,08,15,14,49,25.30
2007,08,15,14,50,25.30
2007,08,15,14,51,25.30
2007,08,15,14,52,25.40
2007,08,15,14,53,25.50
2007,08,15,14,54,25.60
2007,08,15,14,55,25.80
2007,08,15,14,56,25.90
2007,08,15,14,57,25.90
2007,08,15,14,58,25.90
2007,08,15,14,59,25.90
2007,08,15,15,00,25.90
2007,08,15,15,01,25.70
2007,08,15,15,02,25.70
2007,08,15,15,03,25.60
2007,08,15,15,04,25.50
2007,08,15,15,05,25.50
2007,08,15,15,06,25.40
2007,08,15,15,07,25.40
2007,08,15,15,08,25.40
2007,08,15,15,09,25.40
2007,08,15,15,10,25.30
2007,08,15,15,11,25.30
2007,08,15,15,12,25.20
2007,08,15,15,13,25.20
2007,08,15,15,14,25.20
2007,08,15,15,15,25.20
2007,08,15,15,16,25.10
2007,08,15,15,17,25.20
2007,08,15,15,18,25.20
2007,08,15,15,19,25.20
2007,08,15,15,20,25.30
2007,08,15,15,21,25.30
2007,08,15,15,22,25.30
2007,08,15,15,23,25.30
2007,08,15,15,24,25.30
2007,08,15,15,25,25.40
2007,08,15,15,26,25.50
2007,08,15,15,27,25.60
2007,08,15,15,28,25.60
2007,08,15,15,29,25.70
2007,08,15,15,30,25.70
2007,08,15,15,31,25.80
2007,08,15,15,32,25.80
2007,08,15,15,33,25.90
2007,08,15,15,34,25.90
2007,08,15,15,35,25.90
2007,08,15,15,36,25.90
2007,08,15,15,37,25.90
2007,08,15,15,38,26.00
2007,08,15,15,39,26.00
2007,08,15,15,40,26.10
2007,08,15,15,41,26.20
2007,08,15,15,42,26.20
2007,08,15,15,43,26.20
2007,08,15,15,44,26.10
2007,08,15,15,45,26.00
2007,08,15,15,46,26.00
2007,08,15,15,47,25.90
2007,08,15,15,48,25.90
2007,08,15,15,49,25.90
2007,08,15,15,50,25.90
2007,08,15,15,51,25.90
2007,08,15,15,52,25.90
2007,08,15,15,53,25.90
2007,08,15,15,54,25.90
2007,08,15,15,55,25.90
2007,08,15,15,56,25.90
2007,08,15,15,57,25.90
2007,08,15,15,58,26.10
2007,08,15,15,59,26.20
2007,08,15,16,00,26.30
2007,08,15,16,01,26.30
2007,08,15,16,02,26.20
2007,08,15,16,03,26.20
2007,08,15,16,04,26.20
2007,08,15,16,05,26.20
2007,08,15,16,06,26.20
2007,08,15,16,07,26.20
2007,08,15,16,08,26.30
2007,08,15,16,09,26.40
2007,08,15,16,10,26.40
2007,08,15,16,11,26.50
2007,08,15,16,12,26.50
2007,08,15,16,13,26.70
2007,08,15,16,14,26.90
2007,08,15,16,15,27.10
2007,08,15,16,16,27.10
2007,08,15,16,17,27.20
2007,08,15,16,18,27.30
2007,08,15,16,19,27.30
2007,08,15,16,20,27.30
2007,08,15,16,21,27.30
2007,08,15,16,22,27.40
2007,08,15,16,23,27.40
2007,08,15,16,24,27.30
2007,08,15,16,25,27.30
2007,08,15,16,26,27.30
2007,08,15,16,27,27.20
2007,08,15,16,28,27.20
2007,08,15,16,29,27.20
2007,08,15,16,30,27.10
2007,08,15,16,31,27.10
2007,08,15,16,32,27.10
2007,08,15,16,33,27.10
2007,08,15,16,34,27.10
2007,08,15,16,35,27.10
2007,08,15,16,36,27.10
2007,08,15,16,37,27.10
2007,08,15,16,38,27.30
2007,08,15,16,39,27.40
2007,08,15,16,40,27.40
2007,08,15,16,41,27.40
2007,08,15,16,42,27.50
2007,08,15,16,43,27.60
2007,08,15,16,44,27.60
2007,08,15,16,45,27.70
2007,08,15,16,46,27.60
2007,08,15,16,47,27.60
2007,08,15,16,48,27.60
2007,08,15,16,49,27.50
2007,08,15,16,50,27.50
2007,08,15,16,51,27.50
2007,08,15,16,52,27.50
2007,08,15,16,53,27.50
2007,08,15,16,54,27.50
2007,08,15,16,55,27.40
2007,08,15,16,56,27.40
2007,08,15,16,57,27.40
2007,08,15,16,58,27.40
2007,08,15,16,59,27.50
2007,08,15,17,00,27.50
2007,08,15,17,01,27.60
2007,08,15,17,02,27.60
2007,08,15,17,03,27.60
2007,08,15,17,04,27.70
2007,08,15,17,05,27.70
2007,08,15,17,06,27.70
2007,08,15,17,07,27.70
2007,08,15,17,08,27.60
2007,08,15,17,09,27.60
2007,08,15,17,10,27.60
2007,08,15,17,11,27.70
2007,08,15,17,12,27.70
2007,08,15,17,13,27.70
2007,08,15,17,14,27.70
2007,08,15,17,15,27.70
2007,08,15,17,16,27.70
2007,08,15,17,17,27.80
2007,08,15,17,18,27.80
2007,08,15,17,19,27.90